[[{"header":{"parameterUnit":"m.s-1","parameterCategory":1,"la1":30.2991,"la2":30.254,"lo1":-89.0895,"lo2":-89.0444,"dy":0.0017,"dx":0.0017,"nx":28,"ny":28,"refTime":"2025-07-14T03:00:00:Z","depth":0,"parameterNumber":2,"parameterNumberName":"U-component_of_WINDS"},"data":[0,0,0,0,0,0,0,0,0,0,0,0,0,0,0,0,0,0,0,0,0,0,0,0,0,0,0,0,0,0,0,0,0,0,0,0,0,0,0,0,0,0,0,0,0,0,0,0,0,0,0,0,0,0,0,0,0,0,3.4802,3.4803,0,3.4914,3.4915,3.4916,3.4858,3.4855,3.4852,3.485,3.4967,3.4972,3.4978,0,0,0,0,0,0,0,0,0,0,0,0,0,3.454,3.4545,3.4802,3.4803,3.4805,3.4914,3.4915,3.4917,3.4859,3.4855,3.4852,3.4848,3.4965,3.4972,3.4979,0,0,0,0,0,0,0,0,0,0,0,0,0,3.4653,3.4547,3.4802,3.4789,3.4789,3.4913,3.4915,3.4917,3.486,3.4855,3.4851,3.4847,3.4962,3.4971,3.498,3.5124,0,0,3.5007,3.501,0,0,0,0,0,0,0,0,3.4647,3.4663,3.4789,3.479,3.479,3.4868,3.4866,3.4987,3.4861,3.4833,3.485,3.4844,3.4937,3.4948,3.4979,3.5129,3.5134,3.5007,3.5013,3.5017,3.5019,0,0,0,0,0,0,0,3.4639,3.4658,3.4846,3.4791,3.4792,3.4778,3.479,3.4888,3.4909,3.4835,3.4831,3.4845,3.4937,3.4971,3.4981,3.5136,3.5007,3.5015,3.502,3.5024,3.5412,3.5416,0,0,0,0,0,0,3.4632,3.4652,3.4843,3.4849,3.4706,3.4787,3.4799,3.4847,3.4908,3.4913,3.4849,3.4842,3.4958,3.4971,3.4985,3.5158,3.5016,3.5025,3.503,3.5407,3.5413,3.5418,0,0,0,0,0,0,3.4626,3.4649,3.4838,3.475,3.4773,3.4796,3.4851,3.4852,3.4885,3.4918,3.4922,3.4879,3.4955,3.4973,3.509,3.5162,3.5029,3.5037,3.5401,3.5408,3.5415,3.5506,0,0,0,0,0,0,3.4619,3.4648,3.4702,3.4751,3.4778,3.494,3.4855,3.4857,3.4901,3.4893,3.4948,3.4952,3.4952,3.5077,3.5099,3.5171,3.5044,3.5394,3.5404,3.5413,3.5497,3.5516,3.5532,0,0,0,0,0,3.461,3.4723,3.4705,3.4728,3.4846,3.4945,3.496,3.4957,3.4907,3.4962,3.4983,3.4951,3.515,3.5089,3.5113,3.519,3.539,3.5401,3.5412,3.5489,3.5512,3.5532,0,0,0,0,0,0,3.4683,3.473,3.471,3.4842,3.489,3.4935,3.5004,3.4981,3.5045,3.5035,3.5029,3.5042,3.5164,3.5189,3.512,3.5333,3.5262,3.5279,3.5313,3.5335,3.5352,3.5344,3.5051,0,0,0,0,0,3.4714,3.4789,3.4827,3.494,3.4965,3.4981,3.5024,3.5017,3.5067,3.5087,3.5116,3.5166,3.524,3.5289,3.5358,3.55,3.5512,3.5565,3.5582,3.5597,3.5611,3.5689,3.5713,3.5455,3.5455,3.5455,0,0,3.478,3.4815,3.4863,3.4956,3.4992,3.5071,3.4998,3.5085,3.5144,3.51,3.5212,3.5236,3.5291,3.5422,3.5481,3.5446,3.5685,3.5611,3.5622,3.5629,3.5703,3.5728,3.5749,3.5463,3.5461,3.546,0,0,3.494,3.4973,3.5072,3.511,3.5165,3.5175,3.5199,3.5248,3.5261,3.5374,3.5343,3.5414,3.5541,3.5582,3.5619,3.5797,3.577,3.582,3.5912,3.5987,3.6008,3.6026,3.609,3.6113,3.5834,3.5834,3.5834,0,3.5014,3.5132,3.5126,3.5215,3.5257,3.5221,3.5321,3.5359,3.5435,3.5465,3.5425,3.5585,3.5619,3.5759,3.5803,3.5834,3.5862,3.5813,3.6005,3.6023,3.604,3.6101,3.6125,3.584,3.5839,3.5839,3.5838,0,3.5221,3.5303,3.5376,3.545,3.55,3.5595,3.5604,3.5657,3.5646,3.5661,3.5777,3.5817,3.5895,3.5928,3.5919,3.6067,3.6044,3.6005,3.5934,3.607,3.6128,3.6151,3.5848,3.5846,3.5844,3.5843,0,0,3.543,3.5499,3.5526,3.556,3.5619,3.5682,3.5776,3.5851,3.5897,3.5951,3.6029,3.6139,3.6103,3.6146,3.6141,3.6208,3.6347,3.6161,3.6162,3.6194,3.6514,3.6543,3.6569,3.6329,3.6333,3.6337,3.6509,0,3.5594,3.5756,3.5754,3.5905,3.5982,3.5949,3.603,3.6076,3.6093,3.616,3.6179,3.6256,3.6203,3.6229,3.6294,3.6316,3.6411,3.6303,3.6403,3.6407,3.639,3.6599,3.663,3.679,3.6531,3.6535,3.6538,0,3.5807,3.5868,3.6026,3.6075,3.6107,3.618,3.625,3.6315,3.6366,3.6374,3.6422,3.6407,3.6504,3.643,3.6563,3.649,3.6531,3.6548,3.6554,3.6564,3.6481,3.6615,3.6841,3.6866,3.6573,3.657,3.6567,0,3.5944,3.6065,3.6176,3.6206,3.6265,3.6317,3.6345,3.6392,3.6438,3.6499,3.6529,3.6601,3.6641,3.6697,3.6703,3.6648,3.6837,3.6764,3.6847,3.6847,3.6888,3.6885,3.7125,3.6914,3.6914,3.6913,3.6913,0,3.6128,3.6227,3.6238,3.6307,3.6416,3.6413,3.6522,3.6545,3.6588,3.6661,3.6637,3.6706,3.6709,3.678,3.6785,3.6895,3.6913,3.6923,3.6923,3.6925,3.6924,3.6952,3.6941,3.692,3.6918,3.6917,3.6916,0,3.6299,3.6311,3.643,3.6476,3.649,3.6569,3.661,3.6675,3.6689,3.6782,3.6804,3.6827,3.6909,3.692,3.7017,3.7021,3.7153,3.7141,3.7135,3.7134,3.7217,3.7209,3.7483,3.7519,3.7284,3.7286,3.7288,0,3.6416,3.6491,3.6546,3.6592,3.6622,3.6698,3.6745,3.6745,3.6795,3.686,3.6918,3.6998,3.7062,3.7196,3.7222,3.7296,3.7287,3.7378,3.7298,3.7298,3.7289,3.7284,3.7292,3.7393,3.7396,3.7398,3.7399,0,3.6622,3.6625,3.6692,3.6763,3.6819,3.6875,3.6927,3.6967,3.6974,3.7032,3.7115,3.7165,3.7264,3.7344,3.7418,3.7447,3.7426,3.7424,3.7448,3.7451,3.7444,3.7449,3.7178,3.7418,3.7416,3.7415,3.7414,3.7413,3.677,3.6836,3.6884,3.6961,3.7,3.705,3.7114,3.7136,3.7206,3.7286,3.7282,3.7375,3.7426,3.7522,3.7557,3.763,3.76,3.7634,3.7643,3.7651,3.7659,3.7432,3.7643,3.7643,3.7642,3.7642,3.7642,0,3.6976,3.7005,3.7076,3.715,3.721,3.7184,3.724,3.7293,3.7375,3.7424,3.7487,3.7584,3.7662,3.7695,3.7771,3.7824,3.7816,3.7844,3.784,3.7848,3.7681,3.7653,3.7849,3.7849,3.7849,3.7849,3.7849,3.7849,3.709,3.7199,3.7207,3.7336,3.7365,3.7455,3.749,3.7536,3.7575,3.7684,3.7749,3.7769,3.7812,3.7892,3.7963,3.797,3.8,3.8033,3.8036,3.788,3.7859,3.7839,3.7813,3.8039,3.8039,3.8196,3.8198,3.8199]},{"header":{"parameterUnit":"m.s-1","parameterCategory":1,"la1":30.2991,"la2":30.254,"lo1":-89.0895,"lo2":-89.0444,"dy":0.0017,"dx":0.0017,"nx":28,"ny":28,"refTime":"2025-07-14T03:00:00:Z","depth":0,"parameterNumber":3,"parameterNumberName":"V-component_of_WINDS"},"data":[0,0,0,0,0,0,0,0,0,0,0,0,0,0,0,0,0,0,0,0,0,0,0,0,0,0,0,0,0,0,0,0,0,0,0,0,0,0,0,0,0,0,0,0,0,0,0,0,0,0,0,0,0,0,0,0,0,0,-1.5837,-1.5838,0,-1.5939,-1.594,-1.5941,-1.5967,-1.5966,-1.5965,-1.5965,-1.607,-1.6073,-1.6076,0,0,0,0,0,0,0,0,0,0,0,0,0,-1.5666,-1.5669,-1.5837,-1.5838,-1.584,-1.5939,-1.594,-1.5942,-1.5967,-1.5966,-1.5965,-1.5964,-1.6069,-1.6073,-1.6077,0,0,0,0,0,0,0,0,0,0,0,0,0,-1.5751,-1.567,-1.5837,-1.5864,-1.5868,-1.5938,-1.594,-1.5942,-1.5967,-1.5966,-1.5965,-1.5964,-1.6067,-1.6072,-1.6077,-1.6128,0,0,-1.6093,-1.6095,0,0,0,0,0,0,0,0,-1.5746,-1.5758,-1.5859,-1.5862,-1.5866,-1.5939,-1.5918,-1.6004,-1.5967,-1.5929,-1.5965,-1.5964,-1.6027,-1.6035,-1.6057,-1.6133,-1.6138,-1.6093,-1.6096,-1.6099,-1.61,0,0,0,0,0,0,0,-1.574,-1.5753,-1.5877,-1.586,-1.5865,-1.5872,-1.5883,-1.5935,-1.5982,-1.5933,-1.5935,-1.5946,-1.6029,-1.6052,-1.6059,-1.6139,-1.6093,-1.6098,-1.6101,-1.6103,-1.6263,-1.6264,0,0,0,0,0,0,-1.573,-1.5748,-1.5874,-1.588,-1.5803,-1.5876,-1.5888,-1.5917,-1.5982,-1.5991,-1.5947,-1.5947,-1.6043,-1.6053,-1.6063,-1.6127,-1.6098,-1.6103,-1.6106,-1.6262,-1.6264,-1.6265,0,0,0,0,0,0,-1.5726,-1.5741,-1.587,-1.5815,-1.5832,-1.588,-1.5912,-1.5919,-1.5942,-1.5993,-1.6002,-1.5961,-1.6043,-1.6056,-1.6112,-1.6131,-1.6106,-1.611,-1.6261,-1.6263,-1.6264,-1.6256,0,0,0,0,0,0,-1.5721,-1.5739,-1.5759,-1.5815,-1.5835,-1.5917,-1.5913,-1.5922,-1.5951,-1.5952,-1.6009,-1.6017,-1.6043,-1.6104,-1.6117,-1.6138,-1.6114,-1.6259,-1.6262,-1.6264,-1.6254,-1.6257,-1.6259,0,0,0,0,0,-1.5715,-1.5752,-1.5759,-1.5775,-1.586,-1.5918,-1.5929,-1.5958,-1.5952,-1.5972,-1.6005,-1.6015,-1.6127,-1.611,-1.6124,-1.6147,-1.6258,-1.6261,-1.6264,-1.6253,-1.6256,-1.6259,0,0,0,0,0,0,-1.5697,-1.576,-1.5769,-1.5826,-1.5866,-1.5922,-1.5948,-1.596,-1.6003,-1.6003,-1.6037,-1.605,-1.6104,-1.6131,-1.6111,-1.62,-1.6193,-1.6198,-1.618,-1.6183,-1.6186,-1.6178,-1.6118,0,0,0,0,0,-1.57,-1.5741,-1.5794,-1.5839,-1.5859,-1.59,-1.5926,-1.5945,-1.5989,-1.6006,-1.6043,-1.6085,-1.6129,-1.6158,-1.6202,-1.6259,-1.6272,-1.6282,-1.6284,-1.6286,-1.629,-1.6323,-1.6328,-1.6274,-1.6274,-1.6274,0,0,-1.5706,-1.5745,-1.5769,-1.5837,-1.587,-1.5912,-1.5914,-1.5959,-1.5991,-1.6013,-1.6068,-1.6096,-1.6146,-1.6202,-1.6229,-1.6227,-1.6308,-1.6289,-1.629,-1.6294,-1.6326,-1.6331,-1.6335,-1.6276,-1.6275,-1.6275,0,0,-1.5738,-1.5772,-1.5813,-1.5847,-1.5898,-1.5925,-1.5935,-1.5989,-1.6009,-1.6065,-1.6082,-1.6121,-1.6197,-1.6231,-1.6259,-1.6305,-1.6316,-1.6319,-1.6331,-1.6362,-1.6366,-1.637,-1.6386,-1.6392,-1.6323,-1.6323,-1.6323,0,-1.5739,-1.5803,-1.5833,-1.5877,-1.5906,-1.5928,-1.5971,-1.6002,-1.6065,-1.6085,-1.6081,-1.6177,-1.6212,-1.6277,-1.6288,-1.631,-1.6323,-1.6312,-1.6363,-1.6367,-1.6371,-1.6387,-1.6393,-1.6323,-1.6323,-1.6323,-1.6323,0,-1.5802,-1.5846,-1.5873,-1.5933,-1.5965,-1.6008,-1.6045,-1.6075,-1.6091,-1.6119,-1.6176,-1.6218,-1.6271,-1.6288,-1.6305,-1.6356,-1.6353,-1.6356,-1.6349,-1.6376,-1.6391,-1.6398,-1.6323,-1.6323,-1.6323,-1.6323,0,0,-1.5825,-1.5901,-1.591,-1.5938,-1.5996,-1.6031,-1.6075,-1.6127,-1.6151,-1.6194,-1.6232,-1.6296,-1.6299,-1.633,-1.6351,-1.6379,-1.6413,-1.6378,-1.638,-1.6383,-1.6472,-1.6469,-1.6475,-1.6421,-1.6422,-1.6423,-1.6467,0,-1.5864,-1.5943,-1.5972,-1.6037,-1.6078,-1.61,-1.6139,-1.6179,-1.6206,-1.6246,-1.6276,-1.6321,-1.6322,-1.6341,-1.6369,-1.6402,-1.6431,-1.64,-1.6456,-1.6458,-1.6443,-1.6484,-1.6481,-1.652,-1.6474,-1.6475,-1.6476,0,-1.592,-1.5963,-1.6032,-1.6085,-1.6103,-1.6137,-1.6187,-1.6225,-1.6271,-1.6289,-1.6324,-1.6343,-1.6391,-1.6381,-1.6448,-1.6426,-1.6451,-1.6471,-1.6474,-1.6479,-1.6468,-1.649,-1.6534,-1.654,-1.6486,-1.6485,-1.6484,0,-1.5929,-1.6005,-1.6056,-1.6079,-1.6142,-1.6165,-1.6193,-1.6238,-1.6267,-1.6311,-1.6331,-1.638,-1.6407,-1.6444,-1.6476,-1.6467,-1.654,-1.6533,-1.6556,-1.6556,-1.657,-1.6569,-1.6618,-1.6587,-1.6587,-1.6587,-1.6587,0,-1.5969,-1.6011,-1.6061,-1.6092,-1.6139,-1.6173,-1.6219,-1.6248,-1.6288,-1.6326,-1.6348,-1.6383,-1.6424,-1.6464,-1.649,-1.6541,-1.6553,-1.6569,-1.6575,-1.6567,-1.6565,-1.6583,-1.6581,-1.6589,-1.6588,-1.6588,-1.6588,0,-1.5988,-1.6023,-1.608,-1.6135,-1.615,-1.6182,-1.623,-1.6262,-1.629,-1.6338,-1.6351,-1.6396,-1.6445,-1.6481,-1.6545,-1.6562,-1.6616,-1.6623,-1.66,-1.6604,-1.6624,-1.6622,-1.6687,-1.6697,-1.666,-1.666,-1.666,0,-1.6011,-1.6043,-1.6102,-1.6128,-1.6156,-1.6199,-1.6229,-1.6263,-1.6294,-1.6349,-1.6374,-1.6425,-1.6467,-1.6544,-1.6583,-1.6632,-1.6639,-1.6659,-1.6647,-1.6637,-1.6639,-1.6637,-1.664,-1.666,-1.666,-1.6661,-1.6661,0,-1.6048,-1.6064,-1.6106,-1.6154,-1.619,-1.623,-1.627,-1.6291,-1.6333,-1.6366,-1.6416,-1.6449,-1.6513,-1.6563,-1.6616,-1.6645,-1.666,-1.6664,-1.6672,-1.6664,-1.6649,-1.6657,-1.6605,-1.6663,-1.6662,-1.6662,-1.6662,-1.6662,-1.6069,-1.6099,-1.6145,-1.6191,-1.6225,-1.6263,-1.6295,-1.6328,-1.637,-1.6425,-1.6443,-1.6495,-1.6541,-1.6614,-1.6643,-1.6685,-1.6685,-1.6696,-1.6699,-1.6701,-1.67,-1.6643,-1.6695,-1.6695,-1.6695,-1.6695,-1.6695,0,-1.6107,-1.6138,-1.618,-1.6236,-1.6273,-1.6283,-1.6329,-1.6359,-1.6404,-1.6446,-1.6487,-1.6545,-1.6593,-1.6636,-1.6687,-1.6712,-1.672,-1.6724,-1.6722,-1.6729,-1.6698,-1.6686,-1.6717,-1.6717,-1.6717,-1.6717,-1.6717,-1.6717,-1.6131,-1.6182,-1.6203,-1.6272,-1.6302,-1.6353,-1.6378,-1.6413,-1.6446,-1.651,-1.655,-1.6578,-1.662,-1.6674,-1.672,-1.6731,-1.6749,-1.6751,-1.6764,-1.6734,-1.6731,-1.6729,-1.6717,-1.6755,-1.6755,-1.6792,-1.6792,-1.6792]}]]